This demonstration page uses our WeatherBlox Daily Observations layout. Learn more.

Left ArrowRight Arrow

Hourly Observations for June 23, 2019

Temp ( °F °C ) Dew Point ( °F °C ) Humidity (%) Winds ( mph kmh ) Pressure ( in mb ) Visibility ( mi km ) Precip ( " mm )
12:51 am 00:51 Clear 76 24.4 30 -1.1 18 18 NW 13 20 29.75 1008 10 16 0.00 0.00
1:51 am 01:51 Clear 76 24.4 30 -1.1 18 18 NNW 13 20 29.75 1007 10 16 0.00 0.00
2:51 am 02:51 Clear 71 21.7 31 -0.6 23 23 ENE 6 9 29.76 1008 10 16 0.00 0.00
3:51 am 03:51 Clear 72 22.2 32 0 23 23 NNE 3 6 29.78 1008 10 16 0.00 0.00
4:51 am 04:51 Clear 70 21.1 31 -0.6 23 23 W 3 6 29.79 1009 10 16 0.00 0.00
5:51 am 05:51 Sunny 66 18.9 29 -1.7 25 25 ESE 6 9 29.82 1010 10 16 0.00 0.00
6:51 am 06:51 Sunny 74 23.3 32 0 21 21 E 3 6 29.82 1010 10 16 0.00 0.00
7:51 am 07:51 Sunny 77 25 32 0 19 19 S 6 9 29.84 1011 10 16 0.00 0.00
8:51 am 08:51 Sunny 82 27.8 31 -0.6 16 16 VRB 3 6 29.83 1010 10 16 0.00 0.00
9:51 am 09:51 Sunny 86 30 30 -1.1 13 13 VRB 3 6 29.82 1010 10 16 0.00 0.00
10:51 am 10:51 Sunny 87 30.6 30 -1.1 13 13 undefined N/A 29.81 1010 10 16 0.00 0.00
11:51 am 11:51 Sunny 88 31.1 29 -1.7 12 12 W 5 7 29.79 1009 10 16 0.00 0.00
12:51 pm 12:51 Sunny 90 32.2 29 -1.7 11 11 VRB 6 9 29.78 1008 10 16 0.00 0.00
1:51 pm 13:51 Sunny 94 34.4 29 -1.7 10 10 undefined N/A 29.75 1007 10 16 0.00 0.00
2:51 pm 14:51 Mostly Sunny 94 34.4 26 -3.3 9 9 VRB 7 11 29.73 1007 10 16 0.00 0.00
3:51 pm 15:51 Mostly Sunny 95 35 26 -3.3 8 8 W 13 20 29.71 1006 10 16 0.00 0.00
4:51 pm 16:51 Mostly Sunny 94 34.4 22 -5.6 7 7 WNW 10 17 29.70 1006 10 16 0.00 0.00
5:51 pm 17:51 Sunny 94 34.4 20 -6.7 7 7 NNW 13 20 29.70 1006 10 16 0.00 0.00
6:51 pm 18:51 Sunny 91 32.8 19 -7.2 7 7 NW 16 26 29.70 1006 10 16 0.00 0.00
7:51 pm 19:51 Clear 87 30.6 20 -6.7 8 8 NW 13 20 29.72 1006 10 16 0.00 0.00
8:51 pm 20:51 Clear 83 28.3 22 -5.6 10 10 NW 10 17 29.74 1007 10 16 0.00 0.00
9:51 pm 21:51 Clear 80 26.7 23 -5 12 12 WNW 12 19 29.76 1008 10 16 0.00 0.00
10:51 pm 22:51 Clear 76 24.4 25 -3.9 15 15 NW 9 15 29.76 1008 10 16 0.00 0.00
11:51 pm 23:51 Clear 72 22.2 25 -3.9 17 17 WNW 8 13 29.77 1008 10 16 0.00 0.00

Powered by AerisWeather